Regional Weather Roundup
Issued by NWS

Home | Current Version | Previous Version | Text Only | Print | Product List | Glossary Off
Versions: 1 2 3 4 5 6 7 8 9 10 11 12 13 14 15 16 17 18 19 20 21 22 23 24 25 26 27 28 29 30 31 32 33 34 35 36 37 38 39 40 41 42 43 44 45 46 47 48 49 50

000
ASUS45 KSLC 202310
RWRUT

UTAH REGIONAL WEATHER ROUNDUP
NATIONAL WEATHER SERVICE SALT LAKE CITY UT
500 PM MDT MON APR 20 2015

UTZ001>011-023>025-210000-

NORTHERN UTAH

CITY           SKY/WX    TMP DP  RH WIND       PRES   REMARKS
BRIGHAM CITY   SUNNY     68  22  18 S6        29.88F
HILL AFB       NOT AVBL
LOGAN          MOSUNNY   67  27  22 SW6       29.87F
OGDEN          SUNNY     66  20  17 VRB3      29.89F
PROVO AIRPORT  SUNNY     68  25  19 W8        29.87F
SALT LAKE CITY MOSUNNY   69  22  16 N10       29.88F
VERNAL         MOSUNNY   64  27  24 E5        29.87F
WENDOVER       SUNNY     72  19  14 E7        29.87F
HEBER CITY     SUNNY     68  19  15 SW8       29.88S
WEST JORDAN    SUNNY     64  28  25 NW13G18   29.90F

$$

UTZ012>022-026-027-210000-

SOUTHERN/CENTRAL UTAH

CITY           SKY/WX    TMP DP  RH WIND       PRES   REMARKS
BLANDING         N/A     65  20  18 NW9       29.96F
BRYCE CANYON   MOSUNNY   62   9  12 W18G26    29.98F
CEDAR CITY     MOSUNNY   70  12  10 SW12G23   29.87F
DELTA          SUNNY     71  11   9 W6G22     29.87F
HANKSVILLE     SUNNY     73  23  15 W8        29.84F
MILFORD        SUNNY     74  11   9 N12G17    29.85F
MOAB/CYNLANDS  SUNNY     71  21  15 W7        29.83F
PRICE          MOSUNNY   70  13  11 NW14G38   29.87S
ST GEORGE      CLEAR     84  23  10 W15       29.77F
KANAB          MOSUNNY   75   9   7 SW12G20   29.88F

$$

REGIONAL REPORTS     COLORADO/ARIZONA

CITY           SKY/WX    TMP DP  RH WIND       PRES   REMARKS
CRAIG, CO      PTSUNNY   55  31  39 NW6       29.94F
GRAND JUNCTION MOSUNNY   66  29  24 NW10      29.86F
RIFLE          LGT RAIN  56  34  43 SW17G24   29.92R
MONTROSE       MOSUNNY   62  29  28 W9        29.93F
CORTEZ         PTSUNNY   63  18  17 W12       29.93S
PAGE, AZ       MOSUNNY   78  16   9 N8        29.79F
GRAND CANYON   CLOUDY    64  14  14 W3G9      29.98S
KINGMAN        SUNNY     82  12   7 SW13G23   29.83F
FLAGSTAFF      CLOUDY    60  16  18 W9        30.00F

$$

REGIONAL REPORTS    NEVADA/IDAHO/WYOMING

CITY           SKY/WX    TMP DP  RH WIND       PRES   REMARKS
LAS VEGAS, NV  MOSUNNY   86  17   8 VRB5      29.67F
ELY            SUNNY     67   4   8 MISG      29.92F
ELKO           SUNNY     70  18  13 VRB7      29.89F
POCATELLO, ID  SUNNY     66  20  17 W8        29.90F
BURLEY         SUNNY     68  26  20 W8        29.86F
EVANSTON, WY   PTSUNNY   59  18  20 NW18G24   29.95S
ROCK SPRINGS   PTSUNNY   58  21  24 NW13G21   29.90F
KEMMERER       MOSUNNY   55  18  22 W21G26    29.95S

$$


USA.gov is the U.S. government's official web portal to all federal, state and local government web resources and services.